Погода в Коркино

Россия / Костромская область     57°41′41″N   40°57′33″E
темп.,
°C
ветер,
м/с
пор.,
м/с
влажн.,
%
обл.,
%
осадки,
мм/ч
давл.,
гПа
погр.,
м
18 июня, пт
пт1800:00+12св11850 0.0 102511
03:00+11юв228970 0.0 102717
06:00+14ююв34826 0.0 1027148
09:00+19ю336843 0.0 1027483
12:00+22юз34565 0.0 10271160
15:00+24зюз455521 0.0 10251422
18:00+23ююз466842 0.0 1023459
21:00+19юз36846 0.0 102484
19 июня, сб
сб1900:00+16юз4108898 0.0 1024175
03:00+15юз3108510 0.0 1024181
06:00+18зюз411815 0.0 1024338
09:00+22з58706 0.0 1023570
12:00+25з68583 0.0 10231288
15:00+27з58565 0.0 10221760
18:00+25зюз59675 0.0 1021535
21:00+21зюз35824 0.0 102173
20 июня, вс
вс2000:00+18зюз35865 0.0 102274
03:00+17зюз34895 0.0 102356
06:00+19зюз26815 0.0 1023161
09:00+24зюз34665 0.0 1022439
12:00+26юз45570 0.0 10221018
15:00+27зюз45525 0.0 10211319
18:00+26юз36650 0.0 1020430
21:00+21юз35800 0.0 102073
21 июня, пн
пн2100:00+18юз33820 0.0 102140
03:00+17юз33860 0.0 102141
06:00+19юз25840 0.0 1021150
09:00+24зюз34675 0.0 1021467
12:00+28зюз44605 0.0 10211054
15:00+29зюз345567 0.0 10201391
18:00+27зюз367346 0.2 1020277
21:00+24з227623 0.2 102019
22 июня, вт
вт2200:00+20зюз22877 0.0 102112
03:00+19юз22882 0.0 102211
06:00+22юз117993 0.0 102280
09:00+26юз226719 0.0 1022428
12:00+29ююз225647 0.0 1022973
15:00+30ююз2253100 0.0 10221502
18:00+29юз12602 0.0 10221384
21:00+23ю22760 0.0 102212